Showing default

GONETS M 14 (M24), 44905

Orbit data source: Space-Track

GONETS M 14 (M24), 44905 is a payload satellite owned by Gonets (CIS) in LEO that was launched on Thu, 26 Dec 2019 UTC via an ROKOT launch vehicle from the Plesetsk Missile And Space Complex (PKMTR). Payload-class satellites include a variety of spacecraft equipped with specific instruments for various scientific and technological missions. These include communications satellites like Starlink; space stations such as the ISS; scientific satellites like the Hubble; Earth observation satellites from companies like Planet Labs, Umbra, and HawkEye 360; GPS; miniature CubeSats for education and research; and military/defense satellites.

Loading next visibility...
Identifier
44905, 2019-096A
Orbit
LEO
Country
Flag of CISCIS
Related business
Manufacturer
Resehetnev ISS
Mission
Operational Commercial Communications
Bus & Motor
STRELA-3M, Unknown motor
Mass
225 kg wet, 225 kg dry
Launch date (UTC)
2019-12-26 (6 years ago)
Launch vehicle
ROKOT
Launch site
Plesetsk Missile And Space Complex (PKMTR)
Object type
Payload
Rocket body
Debris
Shape & HBR
Cyl + 1 Ant, 3.5 m
Radar Cross Section
1.798 m², Large (>1 m²)

Expand to show TLE details & history
Last TLE update: 6 hours ago

TLE from 6 hours ago
0 GONETS M 14 (M24)
1 44905U 19096A   26126.51105051 -.00000072  00000-0 -59040-3 0  9994
2 44905  82.5194 110.4789 0012072 242.7435 117.2415 12.42868521288505
Epoch: 2026-05-06T12:15Z
TLE epoch observation values (Epoch: 2026-05-06T12:15:54.764Z)
Latitude
-0.00004°
Longitude
62.13022°
Altitude
1,501.527 km
Speed
7.112 km/s
True Right ascension
07h 21m 54s
True Declination
0° 00' 00"
Sunlit
Object was in daylight at epoch
Visualization orbit readout
Latitude
Unknown
Longitude
Unknown
Altitude
Unknown
Speed
Unknown
Apparent Right ascension
Unknown
Apparent Declination
Unknown
Sunlit
N/A
Visualization observer readout
Local Sidereal Time
02:23:37
Azimuth
Unknown
Elevation
Unknown
Doppler factor
Unknown
Orbital elements
Apogee altitude
1,501.318 km
Perigee altitude
1,482.317 km
Semi-major axis
7,869.954 km
Eccentricity
0.00121
Inclination
82.5194°
RAAN
110.4789°
Arg. of periapsis
242.7435°
True anomaly
117.36441°
Mean anomaly
117.2415°
Eccentric anomaly
117.30296°
Mean motion
3.10874 °/min
Orbital period
115.8 mins
BSTAR
-0.0005904
Loading maneuver chart data...
Computing Atmospheric mass density...
Loading historical data...
Loading historical data...
Loading historical data...
Loading historical data...
Loading historical data...
Loading historical data...
Loading historical data...
Other satellites on launch #96 in the year 2019 (2019-12-26 UTC)

Documentation

Showing up to 5 results
|